#timestamp,LO_Frequency,Hit,StdDev 
1646013615.0,286046991.2,N
1646013615.9,286046991.2,N
1646013635.8,286046990.8,N
1646013655.6,286046993.0,N
1646013675.5,286046993.8,N
1646013695.3,286046992.7,N
1646013715.1,286046995.1,N
1646013735.9,286046992.6,N
1646013755.7,286046996.0,N
1646013775.5,286046999.6,N
1646013795.4,286046995.9,N
1646013815.2,286046993.2,N
1646013835.0,286046994.2,N
1646013835.9,286046994.2,N
1646013855.8,286046993.0,N
1646013875.6,286046989.0,N
1646013895.5,286046991.5,N
1646013915.3,286046995.8,N
1646013935.1,286046993.9,N
1646013955.9,286046991.2,N
1646013975.7,286046995.6,N
1646013995.5,286046994.9,N
1646014015.4,286046994.4,N
1646014035.2,286046992.2,N
1646014055.1,286046989.7,Y
1646014056.0,286046989.7,P
1646014075.8,286046995.8,N
1646014095.6,286046993.3,N
1646014115.5,286046994.7,N
1646014135.3,286046995.8,N
1646014155.1,286046995.1,N
1646014175.9,286046995.2,N
1646014195.7,286046998.3,N
1646014215.6,286047001.3,N
1646014235.4,286047007.2,N
1646014255.2,286047010.7,N
1646014275.1,286047009.8,N
1646014276.0,286047009.8,N
1646014295.8,286047012.1,N
1646014315.6,286047013.7,N
1646014335.5,286047009.7,N
1646014355.3,286047010.2,N
1646014375.2,286047007.5,N
1646014395.9,286047001.3,N
1646014415.7,286047000.2,N
1646014435.6,286047001.6,N
1646014455.4,286047003.4,N
1646014475.2,286047004.8,N
1646014495.1,286047003.0,N
1646014496.0,286047003.0,N
1646014515.8,286047001.5,N
1646014535.7,286047002.4,N
1646014555.5,286047000.8,N
1646014575.3,286047000.8,N
1646014595.2,286046997.4,N
1646014615.0,286046993.5,N
1646014615.9,286046993.5,N
1646014635.7,286046992.5,N
1646014655.6,286046990.7,N
1646014675.4,286046995.8,N
1646014695.3,286046998.8,N
1646014715.1,286046995.6,N
1646014716.0,286046995.6,N
1646014735.8,286046997.0,N
1646014755.7,286046998.6,N
1646014775.5,286047000.0,N
1646014795.4,286046996.7,N
1646014815.2,286046998.0,N
1646014835.0,286046993.7,N
1646014835.9,286046993.7,N
1646014855.8,286047000.0,N
1646014875.6,286047000.1,N
1646014895.4,286046997.5,N
1646014915.3,286046993.5,N
1646014935.1,286046993.0,N
1646014955.9,286046995.9,N
1646014975.7,286046995.9,N
1646014995.5,286046995.2,N
1646015015.4,286046996.5,N
1646015035.2,286046992.7,N
1646015055.0,286046992.9,N
1646015086.0,286046993.7,E
1646015095.9,286046995.9,N
1646015115.7,286046994.9,P
1646015135.6,286046995.8,P
1646015155.4,286046995.9,Y
1646015175.3,286047002.1,P
1646015195.1,286047000.3,N
1646015196.0,286047000.3,N
1646015215.8,286046999.1,N
1646015235.7,286046999.3,N
1646015255.5,286047000.6,N
1646015275.3,286047003.4,N
1646015295.2,286047007.3,Y
1646015315.0,286047008.4,P
1646015315.9,286047008.4,N
1646015335.8,286047009.9,N
1646015355.6,286047012.8,Y
1646015375.4,286047002.1,P
1646015395.3,286047002.4,N
1646015415.1,286047004.3,N
1646015435.9,286047002.5,N
1646015455.7,286046998.1,N
1646015475.5,286047000.8,N
1646015495.4,286046995.2,N
1646015515.2,286047002.2,N
1646015535.0,286047002.1,N
1646015535.9,286047002.1,N
1646015555.8,286046995.5,N
1646015575.6,286046998.3,N
1646015595.5,286047002.0,N
1646015615.3,286047000.7,N
1646015635.1,286047005.7,N
1646015655.9,286047002.3,N
1646015675.7,286046997.7,N
1646015695.5,286046991.3,N
1646015715.4,286046988.8,Y
1646015735.2,286046992.1,P
1646015755.1,286046993.3,N
1646015756.0,286046993.3,N
1646015775.8,286046996.5,N
1646015795.6,286047001.5,N
1646015815.5,286047001.5,N
1646015835.3,286047005.1,N
1646015855.1,286047008.5,N
1646015875.9,286047009.2,N
1646015895.7,286047010.1,N
1646015915.6,286047008.8,N
1646015935.4,286047006.7,N
1646015955.2,286047010.8,N
1646015975.1,286047007.5,N
1646015976.0,286047007.5,N
1646015995.8,286047008.8,N
1646016015.6,286047004.4,N
1646016035.5,286047004.4,N
1646016055.3,286047002.3,N
1646016075.2,286047007.5,N
1646016125.9,286047006.7,E
1646016135.8,286047002.9,N
1646016155.7,286046998.5,P
1646016175.5,286046996.4,N
1646016195.3,286047002.0,N
1646016215.2,286047001.9,N
1646016235.0,286047001.7,N
1646016235.9,286047001.7,N
1646016255.8,286047000.9,N
1646016275.6,286047001.2,N
1646016295.4,286047002.7,N
1646016315.3,286046997.8,N
1646016335.1,286047002.4,N
1646016355.8,286047002.7,N
1646016375.7,286047001.9,N
1646016395.5,286047001.9,N
1646016415.4,286047006.0,Y
1646016435.2,286047002.4,P
1646016455.0,286047000.7,N
1646016455.9,286047000.7,N
1646016475.8,286046995.4,Y
1646016495.6,286046990.3,P
1646016515.5,286046990.6,N
1646016535.3,286046991.1,N
1646016555.1,286046994.9,N
1646016575.9,286046997.2,N
1646016595.7,286046999.4,N
1646016615.6,286046993.9,N
1646016635.4,286046987.4,Y
1646016655.2,286046988.8,P
1646016675.1,286046989.9,P
1646016676.0,286046989.9,P
1646016695.8,286046993.2,N
1646016715.6,286046992.5,Y
1646016735.5,286047004.3,P
1646016755.3,286047008.1,N
1646016775.2,286047011.1,N
1646016795.9,286047012.4,N
1646016815.7,286047006.2,N
1646016835.6,286047002.6,N
1646016855.4,286047002.5,N
1646016905.3,286047000.2,E
1646016915.2,286047002.6,N
1646016935.0,286047000.9,P
1646016935.9,286047000.9,N
1646016955.8,286047004.8,Y
1646016975.6,286047005.8,P
1646016995.5,286047003.0,N
1646017015.3,286047005.6,P
1646017035.1,286047005.5,Y
1646017055.9,286046998.9,P
1646017075.7,286047002.8,N
1646017095.5,286046997.9,N
1646017115.4,286046997.2,N
1646017165.2,286047001.1,E
1646017175.2,286047000.0,N
1646017195.0,286047001.9,P
1646017195.9,286047001.9,N
